Meteo Giornale » Osservazioni meteo Italia » Napoli-Capodichino

ore: 22:50 - Osservazioni Meteo Napoli-Capodichino
Lat. 40° 51' N Lon. 14° 18' E Alt. 88 metri s.l.m.

sereno Europe/Rome

10 °C

Sereno

Temp. 24 Ore

10 °C

17 °C

Nord

1.8 Km/h

Dew point 8 °C

Umidità 87 %

Visibilità  10 Km

Il sole sorge alle ore 06:47

Il sole tramonta alle ore 16:47

Data e Ora Cielo e Fenomeni T °C DP °C Um. % Pres. hPa Vis. km Vento km/h
Oggi h: 22:50 sereno Sereno 10 8 87 1009 10 N 1.8
Oggi h: 22:20 sereno Sereno 11 8 81 1009 10 N 3.7
Oggi h: 21:50 sereno Sereno 11 9 87 1009 10 N 1.8
Oggi h: 21:20 sereno Sereno 12 9 81 1009 10 N 5.5
Oggi h: 20:50 sereno Sereno 12 10 87 1009 10 E 7.4
Oggi h: 20:20 sereno Sereno 12 10 87 1009 10 E 9.3
Oggi h: 19:50 sereno Sereno 13 11 87 1009 10 N 3.7
Oggi h: 19:20 sereno Sereno 13 11 87 1009 10 N 3.7
Oggi h: 18:50 poco_nuvoloso Poco Nuvoloso 12 11 93 1009 10 N 3.7
Oggi h: 18:20 poco_nuvoloso Poco Nuvoloso 12 11 93 1008 10 N 1.8
Oggi h: 17:50 poco_nuvoloso Poco Nuvoloso 14 11 82 1008 10 N 1.8
Oggi h: 16:50 poco_nuvoloso Poco Nuvoloso 15 11 76 1008 10 N 5.5
Oggi h: 16:20 nuvoloso Nuvoloso 17 12 72 1008 10 NE 7.4
Oggi h: 15:50 nuvoloso Nuvoloso 17 11 67 1008 10 N 3.7
Oggi h: 15:20 nuvoloso Nuvoloso 17 10 63 1008 10 N 5.5
Oggi h: 14:50 nuvoloso Nuvoloso 17 11 67 1008 10 N 5.5
Oggi h: 14:20 nuvoloso Nuvoloso 17 13 77 1008 10 E 7.4
Oggi h: 13:50 nuvoloso Nuvoloso 16 13 82 1008 10 E 9.3
Oggi h: 13:20 nuvoloso Nuvoloso 15 13 87 1008 10 N 7.4
Oggi h: 12:50 coperto_pioggia Pioggia Debole 13 13 100 1008 10 N 5.5
Oggi h: 12:20 coperto_pioggia Pioggia Debole 13 12 93 1009 7 N 3.7
Oggi h: 11:50 coperto_pioggia Pioggia 13 12 93 1009 5 N 1.8
Oggi h: 11:20 coperto_pioggia Pioggia Debole 13 12 93 1009 10 N 7.4
Oggi h: 10:50 coperto_pioggia Pioggia Debole 13 12 93 1009 8 N/NO 9.3
Oggi h: 10:20 coperto_pioggia Pioggia Debole 13 11 87 1009 10 N/NO 14.8
Oggi h: 09:50 coperto_pioggia Pioggia Debole 14 12 87 1008 10 N 5.5
Oggi h: 09:20 coperto_pioggia Pioggia Debole 13 12 93 1008 10 N 5.5
Oggi h: 08:50 coperto_pioggia Pioggia Debole 13 11 87 1008 10 NE 7.4
Oggi h: 08:20 coperto_pioggia Pioggia Debole 13 12 93 1008 10 E/NE 7.4
Oggi h: 07:50 coperto_pioggia Pioggia Debole 12 11 93 1008 10 N 1.8
Oggi h: 07:20 coperto_pioggia Pioggia Debole 12 11 93 1008 10 N 3.7
Oggi h: 06:50 coperto_pioggia Pioggia Debole 12 11 93 1007 7 NE 7.4
Oggi h: 06:20 coperto_pioggia Pioggia Debole 12 11 93 1007 5 N 7.4
Oggi h: 05:50 nuvoloso_piovaschi Rovescio di Pioggia 12 11 93 1007 5 N/NO 13
Oggi h: 05:20 poco_nuvoloso Poco Nuvoloso 12 10 87 1007 10 E/NE 9.3
Oggi h: 04:50 nuvoloso Nuvoloso 12 10 87 1007 10 N 5.5
Oggi h: 04:20 nuvoloso Nuvoloso 12 10 87 1007 10 E 7.4
Oggi h: 03:50 nuvoloso Nuvoloso 12 10 87 1007 10 N 3.7
Oggi h: 03:20 nuvoloso Nuvoloso 12 10 87 1007 10 N 5.5
Oggi h: 02:50 nuvoloso Nuvoloso 12 10 87 1007 10 N/NO 9.3
Oggi h: 02:20 nuvoloso Nuvoloso 12 9 81 1007 10 N 5.5
Oggi h: 01:50 nuvoloso Nuvoloso 11 10 93 1007 10 N 1.8
Oggi h: 01:20 nuvoloso Nuvoloso 11 9 87 1007 10 N 5.5
Oggi h: 00:50 nuvoloso Nuvoloso 11 9 87 1007 10 N 3.7
Oggi h: 00:20 nuvoloso Nuvoloso 11 9 87 1007 10 N 3.7
Ieri h: 23:50 nuvoloso Nuvoloso 11 9 87 1007 10 N 3.7
Ieri h: 23:20 nuvoloso Nuvoloso 11 9 87 1007 10 N 1.8
Ieri h: 22:50 poco_nuvoloso Poco Nuvoloso 12 9 81 1007 10 N 1.8